Index of /20260422/WXO-DD/model_gdps/15km/00/036
Name Last modified Size Description
Parent Directory -
20260422T00Z_MSC_GDPS_AbsoluteVorticity_IsbL-0200_LatLon0.15_PT036H.grib2 2026-04-22 04:12 1.5M
20260422T00Z_MSC_GDPS_AbsoluteVorticity_IsbL-0250_LatLon0.15_PT036H.grib2 2026-04-22 04:12 1.3M
20260422T00Z_MSC_GDPS_AbsoluteVorticity_IsbL-0500_LatLon0.15_PT036H.grib2 2026-04-22 04:12 1.5M
20260422T00Z_MSC_GDPS_AbsoluteVorticity_IsbL-0700_LatLon0.15_PT036H.grib2 2026-04-22 04:12 1.3M
20260422T00Z_MSC_GDPS_AbsoluteVorticity_IsbL-0850_LatLon0.15_PT036H.grib2 2026-04-22 04:12 1.6M
20260422T00Z_MSC_GDPS_AirTemp-Max_AGL-2m_LatLon0.15_PT036H.grib2 2026-04-22 04:12 736K
20260422T00Z_MSC_GDPS_AirTemp-Min_AGL-2m_LatLon0.15_PT036H.grib2 2026-04-22 04:12 781K
20260422T00Z_MSC_GDPS_AirTemp_AGL-120m_LatLon0.15_PT036H.grib2 2026-04-22 04:12 902K
20260422T00Z_MSC_GDPS_AirTemp_AGL-2m_LatLon0.15_PT036H.grib2 2026-04-22 04:12 1.0M
20260422T00Z_MSC_GDPS_AirTemp_AGL-40m_LatLon0.15_PT036H.grib2 2026-04-22 04:12 919K
20260422T00Z_MSC_GDPS_AirTemp_AGL-80m_LatLon0.15_PT036H.grib2 2026-04-22 04:12 909K
20260422T00Z_MSC_GDPS_AirTemp_IsbL-0001_LatLon0.15_PT036H.grib2 2026-04-22 04:12 646K
20260422T00Z_MSC_GDPS_AirTemp_IsbL-0005_LatLon0.15_PT036H.grib2 2026-04-22 04:12 748K
20260422T00Z_MSC_GDPS_AirTemp_IsbL-0010_LatLon0.15_PT036H.grib2 2026-04-22 04:12 759K
20260422T00Z_MSC_GDPS_AirTemp_IsbL-0020_LatLon0.15_PT036H.grib2 2026-04-22 04:12 702K
20260422T00Z_MSC_GDPS_AirTemp_IsbL-0030_LatLon0.15_PT036H.grib2 2026-04-22 04:12 757K
20260422T00Z_MSC_GDPS_AirTemp_IsbL-0050_LatLon0.15_PT036H.grib2 2026-04-22 04:12 816K
20260422T00Z_MSC_GDPS_AirTemp_IsbL-0100_LatLon0.15_PT036H.grib2 2026-04-22 04:12 955K
20260422T00Z_MSC_GDPS_AirTemp_IsbL-0150_LatLon0.15_PT036H.grib2 2026-04-22 04:12 1.0M
20260422T00Z_MSC_GDPS_AirTemp_IsbL-0175_LatLon0.15_PT036H.grib2 2026-04-22 04:12 1.0M
20260422T00Z_MSC_GDPS_AirTemp_IsbL-0200_LatLon0.15_PT036H.grib2 2026-04-22 04:12 1.0M
20260422T00Z_MSC_GDPS_AirTemp_IsbL-0225_LatLon0.15_PT036H.grib2 2026-04-22 04:12 1.0M
20260422T00Z_MSC_GDPS_AirTemp_IsbL-0250_LatLon0.15_PT036H.grib2 2026-04-22 04:12 1.0M
20260422T00Z_MSC_GDPS_AirTemp_IsbL-0275_LatLon0.15_PT036H.grib2 2026-04-22 04:12 1.0M
20260422T00Z_MSC_GDPS_AirTemp_IsbL-0300_LatLon0.15_PT036H.grib2 2026-04-22 04:12 1.0M
20260422T00Z_MSC_GDPS_AirTemp_IsbL-0350_LatLon0.15_PT036H.grib2 2026-04-22 04:12 936K
20260422T00Z_MSC_GDPS_AirTemp_IsbL-0400_LatLon0.15_PT036H.grib2 2026-04-22 04:12 949K
20260422T00Z_MSC_GDPS_AirTemp_IsbL-0450_LatLon0.15_PT036H.grib2 2026-04-22 04:12 970K
20260422T00Z_MSC_GDPS_AirTemp_IsbL-0500_LatLon0.15_PT036H.grib2 2026-04-22 04:12 1.0M
20260422T00Z_MSC_GDPS_AirTemp_IsbL-0550_LatLon0.15_PT036H.grib2 2026-04-22 04:12 1.0M
20260422T00Z_MSC_GDPS_AirTemp_IsbL-0600_LatLon0.15_PT036H.grib2 2026-04-22 04:12 900K
20260422T00Z_MSC_GDPS_AirTemp_IsbL-0650_LatLon0.15_PT036H.grib2 2026-04-22 04:12 926K
20260422T00Z_MSC_GDPS_AirTemp_IsbL-0700_LatLon0.15_PT036H.grib2 2026-04-22 04:12 959K
20260422T00Z_MSC_GDPS_AirTemp_IsbL-0750_LatLon0.15_PT036H.grib2 2026-04-22 04:12 1.0M
20260422T00Z_MSC_GDPS_AirTemp_IsbL-0800_LatLon0.15_PT036H.grib2 2026-04-22 04:12 1.1M
20260422T00Z_MSC_GDPS_AirTemp_IsbL-0850_LatLon0.15_PT036H.grib2 2026-04-22 04:12 1.1M
20260422T00Z_MSC_GDPS_AirTemp_IsbL-0875_LatLon0.15_PT036H.grib2 2026-04-22 04:12 1.1M
20260422T00Z_MSC_GDPS_AirTemp_IsbL-0900_LatLon0.15_PT036H.grib2 2026-04-22 04:12 1.1M
20260422T00Z_MSC_GDPS_AirTemp_IsbL-0925_LatLon0.15_PT036H.grib2 2026-04-22 04:12 1.1M
20260422T00Z_MSC_GDPS_AirTemp_IsbL-0950_LatLon0.15_PT036H.grib2 2026-04-22 04:12 1.1M
20260422T00Z_MSC_GDPS_AirTemp_IsbL-0970_LatLon0.15_PT036H.grib2 2026-04-22 04:12 1.1M
20260422T00Z_MSC_GDPS_AirTemp_IsbL-0985_LatLon0.15_PT036H.grib2 2026-04-22 04:12 1.1M
20260422T00Z_MSC_GDPS_AirTemp_IsbL-1000_LatLon0.15_PT036H.grib2 2026-04-22 04:12 1.1M
20260422T00Z_MSC_GDPS_AirTemp_IsbL-1015_LatLon0.15_PT036H.grib2 2026-04-22 04:12 1.1M
20260422T00Z_MSC_GDPS_Albedo_Sfc_LatLon0.15_PT036H.grib2 2026-04-22 04:12 245K
20260422T00Z_MSC_GDPS_CAPE_Sfc_LatLon0.15_PT036H.grib2 2026-04-22 04:12 3.8M
20260422T00Z_MSC_GDPS_CIN_Sfc_LatLon0.15_PT036H.grib2 2026-04-22 04:12 2.9M
20260422T00Z_MSC_GDPS_CloudWater_EAtm_LatLon0.15_PT036H.grib2 2026-04-22 04:12 530K
20260422T00Z_MSC_GDPS_ConvectivePrecip-Accum_Sfc_LatLon0.15_PT036H.grib2 2026-04-22 04:12 2.6M
20260422T00Z_MSC_GDPS_DewPointDepression_AGL-2m_LatLon0.15_PT036H.grib2 2026-04-22 04:12 746K
20260422T00Z_MSC_GDPS_DewPointDepression_IsbL-0010_LatLon0.15_PT036H.grib2 2026-04-22 04:12 29K
20260422T00Z_MSC_GDPS_DewPointDepression_IsbL-0020_LatLon0.15_PT036H.grib2 2026-04-22 04:12 72K
20260422T00Z_MSC_GDPS_DewPointDepression_IsbL-0030_LatLon0.15_PT036H.grib2 2026-04-22 04:12 76K
20260422T00Z_MSC_GDPS_DewPointDepression_IsbL-0050_LatLon0.15_PT036H.grib2 2026-04-22 04:12 354K
20260422T00Z_MSC_GDPS_DewPointDepression_IsbL-0100_LatLon0.15_PT036H.grib2 2026-04-22 04:12 401K
20260422T00Z_MSC_GDPS_DewPointDepression_IsbL-0150_LatLon0.15_PT036H.grib2 2026-04-22 04:12 476K
20260422T00Z_MSC_GDPS_DewPointDepression_IsbL-0175_LatLon0.15_PT036H.grib2 2026-04-22 04:12 564K
20260422T00Z_MSC_GDPS_DewPointDepression_IsbL-0200_LatLon0.15_PT036H.grib2 2026-04-22 04:12 648K
20260422T00Z_MSC_GDPS_DewPointDepression_IsbL-0225_LatLon0.15_PT036H.grib2 2026-04-22 04:12 769K
20260422T00Z_MSC_GDPS_DewPointDepression_IsbL-0250_LatLon0.15_PT036H.grib2 2026-04-22 04:12 864K
20260422T00Z_MSC_GDPS_DewPointDepression_IsbL-0275_LatLon0.15_PT036H.grib2 2026-04-22 04:12 889K
20260422T00Z_MSC_GDPS_DewPointDepression_IsbL-0300_LatLon0.15_PT036H.grib2 2026-04-22 04:12 933K
20260422T00Z_MSC_GDPS_DewPointDepression_IsbL-0350_LatLon0.15_PT036H.grib2 2026-04-22 04:12 963K
20260422T00Z_MSC_GDPS_DewPointDepression_IsbL-0400_LatLon0.15_PT036H.grib2 2026-04-22 04:12 1.0M
20260422T00Z_MSC_GDPS_DewPointDepression_IsbL-0450_LatLon0.15_PT036H.grib2 2026-04-22 04:12 1.0M
20260422T00Z_MSC_GDPS_DewPointDepression_IsbL-0500_LatLon0.15_PT036H.grib2 2026-04-22 04:12 1.0M
20260422T00Z_MSC_GDPS_DewPointDepression_IsbL-0550_LatLon0.15_PT036H.grib2 2026-04-22 04:12 1.0M
20260422T00Z_MSC_GDPS_DewPointDepression_IsbL-0600_LatLon0.15_PT036H.grib2 2026-04-22 04:12 1.0M
20260422T00Z_MSC_GDPS_DewPointDepression_IsbL-0650_LatLon0.15_PT036H.grib2 2026-04-22 04:12 1.1M
20260422T00Z_MSC_GDPS_DewPointDepression_IsbL-0700_LatLon0.15_PT036H.grib2 2026-04-22 04:12 1.1M
20260422T00Z_MSC_GDPS_DewPointDepression_IsbL-0750_LatLon0.15_PT036H.grib2 2026-04-22 04:12 1.1M
20260422T00Z_MSC_GDPS_DewPointDepression_IsbL-0800_LatLon0.15_PT036H.grib2 2026-04-22 04:12 1.1M
20260422T00Z_MSC_GDPS_DewPointDepression_IsbL-0850_LatLon0.15_PT036H.grib2 2026-04-22 04:12 1.1M
20260422T00Z_MSC_GDPS_DewPointDepression_IsbL-0875_LatLon0.15_PT036H.grib2 2026-04-22 04:12 1.1M
20260422T00Z_MSC_GDPS_DewPointDepression_IsbL-0900_LatLon0.15_PT036H.grib2 2026-04-22 04:12 1.0M
20260422T00Z_MSC_GDPS_DewPointDepression_IsbL-0925_LatLon0.15_PT036H.grib2 2026-04-22 04:12 1.0M
20260422T00Z_MSC_GDPS_DewPointDepression_IsbL-0950_LatLon0.15_PT036H.grib2 2026-04-22 04:12 1.0M
20260422T00Z_MSC_GDPS_DewPointDepression_IsbL-0970_LatLon0.15_PT036H.grib2 2026-04-22 04:12 1.0M
20260422T00Z_MSC_GDPS_DewPointDepression_IsbL-0985_LatLon0.15_PT036H.grib2 2026-04-22 04:12 966K
20260422T00Z_MSC_GDPS_DewPointDepression_IsbL-1000_LatLon0.15_PT036H.grib2 2026-04-22 04:12 954K
20260422T00Z_MSC_GDPS_DewPointDepression_IsbL-1015_LatLon0.15_PT036H.grib2 2026-04-22 04:12 900K
20260422T00Z_MSC_GDPS_DewPoint_AGL-2m_LatLon0.15_PT036H.grib2 2026-04-22 04:12 605K
20260422T00Z_MSC_GDPS_DownwardLongwaveRadiationFlux-Accum_Sfc_LatLon0.15_PT036H.grib2 2026-04-22 04:12 791K
20260422T00Z_MSC_GDPS_DownwardShortwaveRadiationFlux-Accum_NTAtm_LatLon0.15_PT036H.grib2 2026-04-22 04:12 314K
20260422T00Z_MSC_GDPS_DownwardShortwaveRadiationFlux-Accum_Sfc_LatLon0.15_PT036H.grib2 2026-04-22 04:12 952K
20260422T00Z_MSC_GDPS_FreezingRain-Accum12h_Sfc_LatLon0.15_PT036H.grib2 2026-04-22 04:12 74K
20260422T00Z_MSC_GDPS_FreezingRain-Accum1h_Sfc_LatLon0.15_PT036H.grib2 2026-04-22 04:12 33K
20260422T00Z_MSC_GDPS_FreezingRain-Accum24h_Sfc_LatLon0.15_PT036H.grib2 2026-04-22 04:12 85K
20260422T00Z_MSC_GDPS_FreezingRain-Accum3h_Sfc_LatLon0.15_PT036H.grib2 2026-04-22 04:12 37K
20260422T00Z_MSC_GDPS_FreezingRain-Accum6h_Sfc_LatLon0.15_PT036H.grib2 2026-04-22 04:12 52K
20260422T00Z_MSC_GDPS_FreezingRain-Accum_Sfc_LatLon0.15_PT036H.grib2 2026-04-22 04:12 156K
20260422T00Z_MSC_GDPS_GeopotentialHeight_IsbL-0001_LatLon0.15_PT036H.grib2 2026-04-22 04:12 395K
20260422T00Z_MSC_GDPS_GeopotentialHeight_IsbL-0005_LatLon0.15_PT036H.grib2 2026-04-22 04:12 488K
20260422T00Z_MSC_GDPS_GeopotentialHeight_IsbL-0010_LatLon0.15_PT036H.grib2 2026-04-22 04:12 419K
20260422T00Z_MSC_GDPS_GeopotentialHeight_IsbL-0020_LatLon0.15_PT036H.grib2 2026-04-22 04:12 567K
20260422T00Z_MSC_GDPS_GeopotentialHeight_IsbL-0030_LatLon0.15_PT036H.grib2 2026-04-22 04:12 573K
20260422T00Z_MSC_GDPS_GeopotentialHeight_IsbL-0050_LatLon0.15_PT036H.grib2 2026-04-22 04:12 578K
20260422T00Z_MSC_GDPS_GeopotentialHeight_IsbL-0100_LatLon0.15_PT036H.grib2 2026-04-22 04:12 612K
20260422T00Z_MSC_GDPS_GeopotentialHeight_IsbL-0150_LatLon0.15_PT036H.grib2 2026-04-22 04:12 631K
20260422T00Z_MSC_GDPS_GeopotentialHeight_IsbL-0175_LatLon0.15_PT036H.grib2 2026-04-22 04:12 636K
20260422T00Z_MSC_GDPS_GeopotentialHeight_IsbL-0200_LatLon0.15_PT036H.grib2 2026-04-22 04:12 642K
20260422T00Z_MSC_GDPS_GeopotentialHeight_IsbL-0225_LatLon0.15_PT036H.grib2 2026-04-22 04:12 648K
20260422T00Z_MSC_GDPS_GeopotentialHeight_IsbL-0250_LatLon0.15_PT036H.grib2 2026-04-22 04:12 651K
20260422T00Z_MSC_GDPS_GeopotentialHeight_IsbL-0275_LatLon0.15_PT036H.grib2 2026-04-22 04:12 649K
20260422T00Z_MSC_GDPS_GeopotentialHeight_IsbL-0300_LatLon0.15_PT036H.grib2 2026-04-22 04:12 642K
20260422T00Z_MSC_GDPS_GeopotentialHeight_IsbL-0350_LatLon0.15_PT036H.grib2 2026-04-22 04:12 641K
20260422T00Z_MSC_GDPS_GeopotentialHeight_IsbL-0400_LatLon0.15_PT036H.grib2 2026-04-22 04:12 630K
20260422T00Z_MSC_GDPS_GeopotentialHeight_IsbL-0450_LatLon0.15_PT036H.grib2 2026-04-22 04:12 620K
20260422T00Z_MSC_GDPS_GeopotentialHeight_IsbL-0500_LatLon0.15_PT036H.grib2 2026-04-22 04:12 538K
20260422T00Z_MSC_GDPS_GeopotentialHeight_IsbL-0550_LatLon0.15_PT036H.grib2 2026-04-22 04:12 532K
20260422T00Z_MSC_GDPS_GeopotentialHeight_IsbL-0600_LatLon0.15_PT036H.grib2 2026-04-22 04:12 696K
20260422T00Z_MSC_GDPS_GeopotentialHeight_IsbL-0650_LatLon0.15_PT036H.grib2 2026-04-22 04:12 693K
20260422T00Z_MSC_GDPS_GeopotentialHeight_IsbL-0700_LatLon0.15_PT036H.grib2 2026-04-22 04:12 694K
20260422T00Z_MSC_GDPS_GeopotentialHeight_IsbL-0750_LatLon0.15_PT036H.grib2 2026-04-22 04:12 697K
20260422T00Z_MSC_GDPS_GeopotentialHeight_IsbL-0800_LatLon0.15_PT036H.grib2 2026-04-22 04:12 706K
20260422T00Z_MSC_GDPS_GeopotentialHeight_IsbL-0850_LatLon0.15_PT036H.grib2 2026-04-22 04:12 710K
20260422T00Z_MSC_GDPS_GeopotentialHeight_IsbL-0875_LatLon0.15_PT036H.grib2 2026-04-22 04:12 717K
20260422T00Z_MSC_GDPS_GeopotentialHeight_IsbL-0900_LatLon0.15_PT036H.grib2 2026-04-22 04:12 723K
20260422T00Z_MSC_GDPS_GeopotentialHeight_IsbL-0925_LatLon0.15_PT036H.grib2 2026-04-22 04:12 728K
20260422T00Z_MSC_GDPS_GeopotentialHeight_IsbL-0950_LatLon0.15_PT036H.grib2 2026-04-22 04:12 737K
20260422T00Z_MSC_GDPS_GeopotentialHeight_IsbL-0970_LatLon0.15_PT036H.grib2 2026-04-22 04:12 748K
20260422T00Z_MSC_GDPS_GeopotentialHeight_IsbL-0985_LatLon0.15_PT036H.grib2 2026-04-22 04:12 763K
20260422T00Z_MSC_GDPS_GeopotentialHeight_IsbL-1000_LatLon0.15_PT036H.grib2 2026-04-22 04:12 785K
20260422T00Z_MSC_GDPS_GeopotentialHeight_IsbL-1015_LatLon0.15_PT036H.grib2 2026-04-22 04:12 807K
20260422T00Z_MSC_GDPS_Humidex_Sfc_LatLon0.15_PT036H.grib2 2026-04-22 04:12 5.3M
20260422T00Z_MSC_GDPS_IcePellets-Accum12h_Sfc_LatLon0.15_PT036H.grib2 2026-04-22 04:12 24K
20260422T00Z_MSC_GDPS_IcePellets-Accum1h_Sfc_LatLon0.15_PT036H.grib2 2026-04-22 04:12 11K
20260422T00Z_MSC_GDPS_IcePellets-Accum24h_Sfc_LatLon0.15_PT036H.grib2 2026-04-22 04:12 30K
20260422T00Z_MSC_GDPS_IcePellets-Accum3h_Sfc_LatLon0.15_PT036H.grib2 2026-04-22 04:12 12K
20260422T00Z_MSC_GDPS_IcePellets-Accum6h_Sfc_LatLon0.15_PT036H.grib2 2026-04-22 04:12 19K
20260422T00Z_MSC_GDPS_IcePellets-Accum_Sfc_LatLon0.15_PT036H.grib2 2026-04-22 04:12 46K
20260422T00Z_MSC_GDPS_KIndex_Sfc_LatLon0.15_PT036H.grib2 2026-04-22 04:12 6.5M
20260422T00Z_MSC_GDPS_LatentHeatNetFlux_Sfc_LatLon0.15_PT036H.grib2 2026-04-22 04:12 547K
20260422T00Z_MSC_GDPS_LiftedIndex-MU-VT_IsbL-0500_LatLon0.15_PT036H.grib2 2026-04-22 04:12 5.4M
20260422T00Z_MSC_GDPS_NetLongwaveRadiationFlux-Accum_Sfc_LatLon0.15_PT036H.grib2 2026-04-22 04:12 1.0M
20260422T00Z_MSC_GDPS_NetShortwaveRadiationFlux-Accum_Sfc_LatLon0.15_PT036H.grib2 2026-04-22 04:12 936K
20260422T00Z_MSC_GDPS_O3MixingRatio_LatLon0.15_PT036H.grib2 2026-04-22 04:58 2.3M
20260422T00Z_MSC_GDPS_O3_EAtm_LatLon0.15_PT036H.grib2 2026-04-22 04:58 2.5M
20260422T00Z_MSC_GDPS_PlanetaryBoundaryLayerHeight_Sfc_LatLon0.15_PT036H.grib2 2026-04-22 04:12 2.5M
20260422T00Z_MSC_GDPS_Precip-Accum12h_Sfc_LatLon0.15_PT036H.grib2 2026-04-22 04:12 4.0M
20260422T00Z_MSC_GDPS_Precip-Accum1h_Sfc_LatLon0.15_PT036H.grib2 2026-04-22 04:12 3.3M
20260422T00Z_MSC_GDPS_Precip-Accum24h_Sfc_LatLon0.15_PT036H.grib2 2026-04-22 04:12 4.6M
20260422T00Z_MSC_GDPS_Precip-Accum3h_Sfc_LatLon0.15_PT036H.grib2 2026-04-22 04:12 3.5M
20260422T00Z_MSC_GDPS_Precip-Accum6h_Sfc_LatLon0.15_PT036H.grib2 2026-04-22 04:12 3.6M
20260422T00Z_MSC_GDPS_Precip-Accum_Sfc_LatLon0.15_PT036H.grib2 2026-04-22 04:12 4.7M
20260422T00Z_MSC_GDPS_PrecipRate_Sfc_LatLon0.15_PT036H.grib2 2026-04-22 04:12 3.0M
20260422T00Z_MSC_GDPS_PrecipType-Instant_Sfc_LatLon0.15_PT036H.grib2 2026-04-22 04:12 1.6M
20260422T00Z_MSC_GDPS_Pressure_MSL_LatLon0.15_PT036H.grib2 2026-04-22 04:12 720K
20260422T00Z_MSC_GDPS_Pressure_PVU-1.5_LatLon0.15_PT036H.grib2 2026-04-22 04:12 5.8M
20260422T00Z_MSC_GDPS_Pressure_PVU-1_LatLon0.15_PT036H.grib2 2026-04-22 04:12 6.0M
20260422T00Z_MSC_GDPS_Pressure_PVU-2_LatLon0.15_PT036H.grib2 2026-04-22 04:12 5.6M
20260422T00Z_MSC_GDPS_Pressure_Sfc_LatLon0.15_PT036H.grib2 2026-04-22 04:12 1.1M
20260422T00Z_MSC_GDPS_RadiativeTemp_Sfc_LatLon0.15_PT036H.grib2 2026-04-22 04:12 666K
20260422T00Z_MSC_GDPS_Rain-Accum12h_Sfc_LatLon0.15_PT036H.grib2 2026-04-22 04:12 2.7M
20260422T00Z_MSC_GDPS_Rain-Accum1h_Sfc_LatLon0.15_PT036H.grib2 2026-04-22 04:12 1.7M
20260422T00Z_MSC_GDPS_Rain-Accum24h_Sfc_LatLon0.15_PT036H.grib2 2026-04-22 04:12 3.1M
20260422T00Z_MSC_GDPS_Rain-Accum3h_Sfc_LatLon0.15_PT036H.grib2 2026-04-22 04:12 1.7M
20260422T00Z_MSC_GDPS_Rain-Accum6h_Sfc_LatLon0.15_PT036H.grib2 2026-04-22 04:12 2.3M
20260422T00Z_MSC_GDPS_Rain-Accum_Sfc_LatLon0.15_PT036H.grib2 2026-04-22 04:12 3.4M
20260422T00Z_MSC_GDPS_RelativeHumidity_AGL-2m_LatLon0.15_PT036H.grib2 2026-04-22 04:12 1.1M
20260422T00Z_MSC_GDPS_RelativeHumidity_IsbL-0010_LatLon0.15_PT036H.grib2 2026-04-22 04:12 270K
20260422T00Z_MSC_GDPS_RelativeHumidity_IsbL-0020_LatLon0.15_PT036H.grib2 2026-04-22 04:12 284K
20260422T00Z_MSC_GDPS_RelativeHumidity_IsbL-0030_LatLon0.15_PT036H.grib2 2026-04-22 04:12 426K
20260422T00Z_MSC_GDPS_RelativeHumidity_IsbL-0050_LatLon0.15_PT036H.grib2 2026-04-22 04:12 421K
20260422T00Z_MSC_GDPS_RelativeHumidity_IsbL-0100_LatLon0.15_PT036H.grib2 2026-04-22 04:12 502K
20260422T00Z_MSC_GDPS_RelativeHumidity_IsbL-0150_LatLon0.15_PT036H.grib2 2026-04-22 04:12 655K
20260422T00Z_MSC_GDPS_RelativeHumidity_IsbL-0175_LatLon0.15_PT036H.grib2 2026-04-22 04:12 782K
20260422T00Z_MSC_GDPS_RelativeHumidity_IsbL-0200_LatLon0.15_PT036H.grib2 2026-04-22 04:12 696K
20260422T00Z_MSC_GDPS_RelativeHumidity_IsbL-0225_LatLon0.15_PT036H.grib2 2026-04-22 04:12 788K
20260422T00Z_MSC_GDPS_RelativeHumidity_IsbL-0250_LatLon0.15_PT036H.grib2 2026-04-22 04:12 874K
20260422T00Z_MSC_GDPS_RelativeHumidity_IsbL-0275_LatLon0.15_PT036H.grib2 2026-04-22 04:12 895K
20260422T00Z_MSC_GDPS_RelativeHumidity_IsbL-0300_LatLon0.15_PT036H.grib2 2026-04-22 04:12 934K
20260422T00Z_MSC_GDPS_RelativeHumidity_IsbL-0350_LatLon0.15_PT036H.grib2 2026-04-22 04:12 954K
20260422T00Z_MSC_GDPS_RelativeHumidity_IsbL-0400_LatLon0.15_PT036H.grib2 2026-04-22 04:12 1.0M
20260422T00Z_MSC_GDPS_RelativeHumidity_IsbL-0450_LatLon0.15_PT036H.grib2 2026-04-22 04:12 1.0M
20260422T00Z_MSC_GDPS_RelativeHumidity_IsbL-0500_LatLon0.15_PT036H.grib2 2026-04-22 04:12 1.0M
20260422T00Z_MSC_GDPS_RelativeHumidity_IsbL-0550_LatLon0.15_PT036H.grib2 2026-04-22 04:12 1.1M
20260422T00Z_MSC_GDPS_RelativeHumidity_IsbL-0600_LatLon0.15_PT036H.grib2 2026-04-22 04:12 1.1M
20260422T00Z_MSC_GDPS_RelativeHumidity_IsbL-0650_LatLon0.15_PT036H.grib2 2026-04-22 04:12 1.1M
20260422T00Z_MSC_GDPS_RelativeHumidity_IsbL-0700_LatLon0.15_PT036H.grib2 2026-04-22 04:12 1.1M
20260422T00Z_MSC_GDPS_RelativeHumidity_IsbL-0750_LatLon0.15_PT036H.grib2 2026-04-22 04:12 1.1M
20260422T00Z_MSC_GDPS_RelativeHumidity_IsbL-0800_LatLon0.15_PT036H.grib2 2026-04-22 04:12 1.2M
20260422T00Z_MSC_GDPS_RelativeHumidity_IsbL-0850_LatLon0.15_PT036H.grib2 2026-04-22 04:12 1.3M
20260422T00Z_MSC_GDPS_RelativeHumidity_IsbL-0875_LatLon0.15_PT036H.grib2 2026-04-22 04:12 1.3M
20260422T00Z_MSC_GDPS_RelativeHumidity_IsbL-0900_LatLon0.15_PT036H.grib2 2026-04-22 04:12 1.2M
20260422T00Z_MSC_GDPS_RelativeHumidity_IsbL-0925_LatLon0.15_PT036H.grib2 2026-04-22 04:12 1.2M
20260422T00Z_MSC_GDPS_RelativeHumidity_IsbL-0950_LatLon0.15_PT036H.grib2 2026-04-22 04:12 1.2M
20260422T00Z_MSC_GDPS_RelativeHumidity_IsbL-0970_LatLon0.15_PT036H.grib2 2026-04-22 04:12 1.2M
20260422T00Z_MSC_GDPS_RelativeHumidity_IsbL-0985_LatLon0.15_PT036H.grib2 2026-04-22 04:12 1.1M
20260422T00Z_MSC_GDPS_RelativeHumidity_IsbL-1000_LatLon0.15_PT036H.grib2 2026-04-22 04:12 1.1M
20260422T00Z_MSC_GDPS_RelativeHumidity_IsbL-1015_LatLon0.15_PT036H.grib2 2026-04-22 04:12 1.0M
20260422T00Z_MSC_GDPS_RelativeVorticity_IsbL-0200_LatLon0.15_PT036H.grib2 2026-04-22 04:12 1.5M
20260422T00Z_MSC_GDPS_RelativeVorticity_IsbL-0250_LatLon0.15_PT036H.grib2 2026-04-22 04:12 1.3M
20260422T00Z_MSC_GDPS_RelativeVorticity_IsbL-0500_LatLon0.15_PT036H.grib2 2026-04-22 04:12 1.5M
20260422T00Z_MSC_GDPS_RelativeVorticity_IsbL-0700_LatLon0.15_PT036H.grib2 2026-04-22 04:12 1.6M
20260422T00Z_MSC_GDPS_RelativeVorticity_IsbL-0850_LatLon0.15_PT036H.grib2 2026-04-22 04:12 1.6M
20260422T00Z_MSC_GDPS_Runoff-Accum_Sfc_LatLon0.15_PT036H.grib2 2026-04-22 04:12 126K
20260422T00Z_MSC_GDPS_SensibleHeatNetFlux_Sfc_LatLon0.15_PT036H.grib2 2026-04-22 04:12 482K
20260422T00Z_MSC_GDPS_ShowalterIndex_IsbL-0500_LatLon0.15_PT036H.grib2 2026-04-22 04:12 6.2M
20260422T00Z_MSC_GDPS_Snow-Accum12h_Sfc_LatLon0.15_PT036H.grib2 2026-04-22 04:12 1.4M
20260422T00Z_MSC_GDPS_Snow-Accum1h_Sfc_LatLon0.15_PT036H.grib2 2026-04-22 04:12 1.1M
20260422T00Z_MSC_GDPS_Snow-Accum24h_Sfc_LatLon0.15_PT036H.grib2 2026-04-22 04:12 1.4M
20260422T00Z_MSC_GDPS_Snow-Accum3h_Sfc_LatLon0.15_PT036H.grib2 2026-04-22 04:12 916K
20260422T00Z_MSC_GDPS_Snow-Accum6h_Sfc_LatLon0.15_PT036H.grib2 2026-04-22 04:12 1.2M
20260422T00Z_MSC_GDPS_Snow-Accum_Sfc_LatLon0.15_PT036H.grib2 2026-04-22 04:12 1.7M
20260422T00Z_MSC_GDPS_SnowDensity_Sfc_LatLon0.15_PT036H.grib2 2026-04-22 04:12 265K
20260422T00Z_MSC_GDPS_SnowDepth_Sfc_LatLon0.15_PT036H.grib2 2026-04-22 04:12 1.8M
20260422T00Z_MSC_GDPS_SoilTemp_DBS-0to10cm_LatLon0.15_PT036H.grib2 2026-04-22 04:12 502K
20260422T00Z_MSC_GDPS_SoilTemp_Sfc_LatLon0.15_PT036H.grib2 2026-04-22 04:12 588K
20260422T00Z_MSC_GDPS_SoilVolumetricIceContent_Sfc_LatLon0.15_PT036H.grib2 2026-04-22 04:12 217K
20260422T00Z_MSC_GDPS_SoilVolumetricWaterContent_DBS-0to10cm_LatLon0.15_PT036H.grib2 2026-04-22 04:12 558K
20260422T00Z_MSC_GDPS_SoilVolumetricWaterContent_DBS-0to1cm_LatLon0.15_PT036H.grib2 2026-04-22 04:12 650K
20260422T00Z_MSC_GDPS_SpecificHumidity_AGL-120m_LatLon0.15_PT036H.grib2 2026-04-22 04:12 1.1M
20260422T00Z_MSC_GDPS_SpecificHumidity_AGL-2m_LatLon0.15_PT036H.grib2 2026-04-22 04:12 1.2M
20260422T00Z_MSC_GDPS_SpecificHumidity_AGL-40m_LatLon0.15_PT036H.grib2 2026-04-22 04:12 1.1M
20260422T00Z_MSC_GDPS_SpecificHumidity_AGL-80m_LatLon0.15_PT036H.grib2 2026-04-22 04:12 1.1M
20260422T00Z_MSC_GDPS_SpecificHumidity_IsbL-0001_LatLon0.15_PT036H.grib2 2026-04-22 04:12 1.0M
20260422T00Z_MSC_GDPS_SpecificHumidity_IsbL-0005_LatLon0.15_PT036H.grib2 2026-04-22 04:12 1.2M
20260422T00Z_MSC_GDPS_SpecificHumidity_IsbL-0010_LatLon0.15_PT036H.grib2 2026-04-22 04:12 1.3M
20260422T00Z_MSC_GDPS_SpecificHumidity_IsbL-0020_LatLon0.15_PT036H.grib2 2026-04-22 04:12 1.4M
20260422T00Z_MSC_GDPS_SpecificHumidity_IsbL-0030_LatLon0.15_PT036H.grib2 2026-04-22 04:12 1.3M
20260422T00Z_MSC_GDPS_SpecificHumidity_IsbL-0050_LatLon0.15_PT036H.grib2 2026-04-22 04:12 1.4M
20260422T00Z_MSC_GDPS_SpecificHumidity_IsbL-0100_LatLon0.15_PT036H.grib2 2026-04-22 04:12 1.4M
20260422T00Z_MSC_GDPS_SpecificHumidity_IsbL-0150_LatLon0.15_PT036H.grib2 2026-04-22 04:12 1.3M
20260422T00Z_MSC_GDPS_SpecificHumidity_IsbL-0175_LatLon0.15_PT036H.grib2 2026-04-22 04:12 1.3M
20260422T00Z_MSC_GDPS_SpecificHumidity_IsbL-0200_LatLon0.15_PT036H.grib2 2026-04-22 04:12 1.3M
20260422T00Z_MSC_GDPS_SpecificHumidity_IsbL-0225_LatLon0.15_PT036H.grib2 2026-04-22 04:12 1.3M
20260422T00Z_MSC_GDPS_SpecificHumidity_IsbL-0250_LatLon0.15_PT036H.grib2 2026-04-22 04:12 1.4M
20260422T00Z_MSC_GDPS_SpecificHumidity_IsbL-0275_LatLon0.15_PT036H.grib2 2026-04-22 04:12 1.3M
20260422T00Z_MSC_GDPS_SpecificHumidity_IsbL-0300_LatLon0.15_PT036H.grib2 2026-04-22 04:12 1.2M
20260422T00Z_MSC_GDPS_SpecificHumidity_IsbL-0350_LatLon0.15_PT036H.grib2 2026-04-22 04:12 1.5M
20260422T00Z_MSC_GDPS_SpecificHumidity_IsbL-0400_LatLon0.15_PT036H.grib2 2026-04-22 04:12 1.5M
20260422T00Z_MSC_GDPS_SpecificHumidity_IsbL-0450_LatLon0.15_PT036H.grib2 2026-04-22 04:12 1.6M
20260422T00Z_MSC_GDPS_SpecificHumidity_IsbL-0500_LatLon0.15_PT036H.grib2 2026-04-22 04:12 1.4M
20260422T00Z_MSC_GDPS_SpecificHumidity_IsbL-0550_LatLon0.15_PT036H.grib2 2026-04-22 04:12 1.6M
20260422T00Z_MSC_GDPS_SpecificHumidity_IsbL-0600_LatLon0.15_PT036H.grib2 2026-04-22 04:12 1.7M
20260422T00Z_MSC_GDPS_SpecificHumidity_IsbL-0650_LatLon0.15_PT036H.grib2 2026-04-22 04:12 1.5M
20260422T00Z_MSC_GDPS_SpecificHumidity_IsbL-0700_LatLon0.15_PT036H.grib2 2026-04-22 04:12 1.6M
20260422T00Z_MSC_GDPS_SpecificHumidity_IsbL-0750_LatLon0.15_PT036H.grib2 2026-04-22 04:12 1.7M
20260422T00Z_MSC_GDPS_SpecificHumidity_IsbL-0800_LatLon0.15_PT036H.grib2 2026-04-22 04:12 1.8M
20260422T00Z_MSC_GDPS_SpecificHumidity_IsbL-0850_LatLon0.15_PT036H.grib2 2026-04-22 04:12 1.9M
20260422T00Z_MSC_GDPS_SpecificHumidity_IsbL-0875_LatLon0.15_PT036H.grib2 2026-04-22 04:12 1.9M
20260422T00Z_MSC_GDPS_SpecificHumidity_IsbL-0900_LatLon0.15_PT036H.grib2 2026-04-22 04:12 1.6M
20260422T00Z_MSC_GDPS_SpecificHumidity_IsbL-0925_LatLon0.15_PT036H.grib2 2026-04-22 04:12 1.6M
20260422T00Z_MSC_GDPS_SpecificHumidity_IsbL-0950_LatLon0.15_PT036H.grib2 2026-04-22 04:12 1.5M
20260422T00Z_MSC_GDPS_SpecificHumidity_IsbL-0970_LatLon0.15_PT036H.grib2 2026-04-22 04:12 1.5M
20260422T00Z_MSC_GDPS_SpecificHumidity_IsbL-0985_LatLon0.15_PT036H.grib2 2026-04-22 04:12 1.5M
20260422T00Z_MSC_GDPS_SpecificHumidity_IsbL-1000_LatLon0.15_PT036H.grib2 2026-04-22 04:12 1.5M
20260422T00Z_MSC_GDPS_SpecificHumidity_IsbL-1015_LatLon0.15_PT036H.grib2 2026-04-22 04:12 1.4M
20260422T00Z_MSC_GDPS_SpecificHumidity_Sfc_LatLon0.15_PT036H.grib2 2026-04-22 04:12 666K
20260422T00Z_MSC_GDPS_Thickness_IsbL-0850to0700_LatLon0.15_PT036H.grib2 2026-04-22 04:12 471K
20260422T00Z_MSC_GDPS_Thickness_IsbL-1000to0500_LatLon0.15_PT036H.grib2 2026-04-22 04:12 377K
20260422T00Z_MSC_GDPS_Thickness_IsbL-1000to0850_LatLon0.15_PT036H.grib2 2026-04-22 04:12 487K
20260422T00Z_MSC_GDPS_TotalCloudCover_Sfc_LatLon0.15_PT036H.grib2 2026-04-22 04:12 830K
20260422T00Z_MSC_GDPS_TotalTotalsIndex_Sfc_LatLon0.15_PT036H.grib2 2026-04-22 04:12 6.2M
20260422T00Z_MSC_GDPS_UVIndex-ClearSky_Sfc_LatLon0.15_PT036H.grib2 2026-04-22 04:58 1.0M
20260422T00Z_MSC_GDPS_UVIndex_Sfc_LatLon0.15_PT036H.grib2 2026-04-22 04:58 1.4M
20260422T00Z_MSC_GDPS_UpwardLongwaveRadiationFlux_NTAtm_LatLon0.15_PT036H.grib2 2026-04-22 04:12 842K
20260422T00Z_MSC_GDPS_VerticalVelocity_IsbL-0200_LatLon0.15_PT036H.grib2 2026-04-22 04:12 944K
20260422T00Z_MSC_GDPS_VerticalVelocity_IsbL-0250_LatLon0.15_PT036H.grib2 2026-04-22 04:12 1.1M
20260422T00Z_MSC_GDPS_VerticalVelocity_IsbL-0500_LatLon0.15_PT036H.grib2 2026-04-22 04:12 1.0M
20260422T00Z_MSC_GDPS_VerticalVelocity_IsbL-0600_LatLon0.15_PT036H.grib2 2026-04-22 04:12 1.1M
20260422T00Z_MSC_GDPS_VerticalVelocity_IsbL-0700_LatLon0.15_PT036H.grib2 2026-04-22 04:12 1.4M
20260422T00Z_MSC_GDPS_VerticalVelocity_IsbL-0850_LatLon0.15_PT036H.grib2 2026-04-22 04:12 1.6M
20260422T00Z_MSC_GDPS_WindChill_Sfc_LatLon0.15_PT036H.grib2 2026-04-22 04:12 5.3M
20260422T00Z_MSC_GDPS_WindDir_AGL-10m_LatLon0.15_PT036H.grib2 2026-04-22 04:12 1.3M
20260422T00Z_MSC_GDPS_WindDir_AGL-120m_LatLon0.15_PT036H.grib2 2026-04-22 04:12 1.3M
20260422T00Z_MSC_GDPS_WindDir_AGL-40m_LatLon0.15_PT036H.grib2 2026-04-22 04:12 1.4M
20260422T00Z_MSC_GDPS_WindDir_AGL-80m_LatLon0.15_PT036H.grib2 2026-04-22 04:12 1.3M
20260422T00Z_MSC_GDPS_WindDir_IsbL-0001_LatLon0.15_PT036H.grib2 2026-04-22 04:12 647K
20260422T00Z_MSC_GDPS_WindDir_IsbL-0005_LatLon0.15_PT036H.grib2 2026-04-22 04:12 800K
20260422T00Z_MSC_GDPS_WindDir_IsbL-0010_LatLon0.15_PT036H.grib2 2026-04-22 04:12 871K
20260422T00Z_MSC_GDPS_WindDir_IsbL-0020_LatLon0.15_PT036H.grib2 2026-04-22 04:12 958K
20260422T00Z_MSC_GDPS_WindDir_IsbL-0030_LatLon0.15_PT036H.grib2 2026-04-22 04:12 929K
20260422T00Z_MSC_GDPS_WindDir_IsbL-0050_LatLon0.15_PT036H.grib2 2026-04-22 04:12 970K
20260422T00Z_MSC_GDPS_WindDir_IsbL-0100_LatLon0.15_PT036H.grib2 2026-04-22 04:12 1.0M
20260422T00Z_MSC_GDPS_WindDir_IsbL-0150_LatLon0.15_PT036H.grib2 2026-04-22 04:12 1.0M
20260422T00Z_MSC_GDPS_WindDir_IsbL-0175_LatLon0.15_PT036H.grib2 2026-04-22 04:12 1.1M
20260422T00Z_MSC_GDPS_WindDir_IsbL-0200_LatLon0.15_PT036H.grib2 2026-04-22 04:12 1.1M
20260422T00Z_MSC_GDPS_WindDir_IsbL-0225_LatLon0.15_PT036H.grib2 2026-04-22 04:12 1.1M
20260422T00Z_MSC_GDPS_WindDir_IsbL-0250_LatLon0.15_PT036H.grib2 2026-04-22 04:12 1.1M
20260422T00Z_MSC_GDPS_WindDir_IsbL-0275_LatLon0.15_PT036H.grib2 2026-04-22 04:12 1.1M
20260422T00Z_MSC_GDPS_WindDir_IsbL-0300_LatLon0.15_PT036H.grib2 2026-04-22 04:12 1.2M
20260422T00Z_MSC_GDPS_WindDir_IsbL-0350_LatLon0.15_PT036H.grib2 2026-04-22 04:12 1.2M
20260422T00Z_MSC_GDPS_WindDir_IsbL-0400_LatLon0.15_PT036H.grib2 2026-04-22 04:12 1.2M
20260422T00Z_MSC_GDPS_WindDir_IsbL-0450_LatLon0.15_PT036H.grib2 2026-04-22 04:12 1.3M
20260422T00Z_MSC_GDPS_WindDir_IsbL-0500_LatLon0.15_PT036H.grib2 2026-04-22 04:12 1.4M
20260422T00Z_MSC_GDPS_WindDir_IsbL-0550_LatLon0.15_PT036H.grib2 2026-04-22 04:12 1.4M
20260422T00Z_MSC_GDPS_WindDir_IsbL-0600_LatLon0.15_PT036H.grib2 2026-04-22 04:12 1.5M
20260422T00Z_MSC_GDPS_WindDir_IsbL-0650_LatLon0.15_PT036H.grib2 2026-04-22 04:12 1.5M
20260422T00Z_MSC_GDPS_WindDir_IsbL-0700_LatLon0.15_PT036H.grib2 2026-04-22 04:12 1.6M
20260422T00Z_MSC_GDPS_WindDir_IsbL-0750_LatLon0.15_PT036H.grib2 2026-04-22 04:12 1.7M
20260422T00Z_MSC_GDPS_WindDir_IsbL-0800_LatLon0.15_PT036H.grib2 2026-04-22 04:12 1.8M
20260422T00Z_MSC_GDPS_WindDir_IsbL-0850_LatLon0.15_PT036H.grib2 2026-04-22 04:12 1.9M
20260422T00Z_MSC_GDPS_WindDir_IsbL-0875_LatLon0.15_PT036H.grib2 2026-04-22 04:12 1.9M
20260422T00Z_MSC_GDPS_WindDir_IsbL-0900_LatLon0.15_PT036H.grib2 2026-04-22 04:12 1.9M
20260422T00Z_MSC_GDPS_WindDir_IsbL-0925_LatLon0.15_PT036H.grib2 2026-04-22 04:12 1.9M
20260422T00Z_MSC_GDPS_WindDir_IsbL-0950_LatLon0.15_PT036H.grib2 2026-04-22 04:12 1.9M
20260422T00Z_MSC_GDPS_WindDir_IsbL-0970_LatLon0.15_PT036H.grib2 2026-04-22 04:12 2.0M
20260422T00Z_MSC_GDPS_WindDir_IsbL-0985_LatLon0.15_PT036H.grib2 2026-04-22 04:12 2.0M
20260422T00Z_MSC_GDPS_WindDir_IsbL-1000_LatLon0.15_PT036H.grib2 2026-04-22 04:12 2.0M
20260422T00Z_MSC_GDPS_WindDir_IsbL-1015_LatLon0.15_PT036H.grib2 2026-04-22 04:12 2.0M
20260422T00Z_MSC_GDPS_WindGust-Max_AGL-10m_LatLon0.15_PT036H.grib2 2026-04-22 04:12 2.2M
20260422T00Z_MSC_GDPS_WindGust-Min_AGL-10m_LatLon0.15_PT036H.grib2 2026-04-22 04:12 2.2M
20260422T00Z_MSC_GDPS_WindGust_AGL-10m_LatLon0.15_PT036H.grib2 2026-04-22 04:12 2.2M
20260422T00Z_MSC_GDPS_WindSpeed_AGL-10m_LatLon0.15_PT036H.grib2 2026-04-22 04:12 1.1M
20260422T00Z_MSC_GDPS_WindSpeed_AGL-120m_LatLon0.15_PT036H.grib2 2026-04-22 04:12 1.2M
20260422T00Z_MSC_GDPS_WindSpeed_AGL-40m_LatLon0.15_PT036H.grib2 2026-04-22 04:12 1.2M
20260422T00Z_MSC_GDPS_WindSpeed_AGL-80m_LatLon0.15_PT036H.grib2 2026-04-22 04:12 1.2M
20260422T00Z_MSC_GDPS_WindSpeed_IsbL-0001_LatLon0.15_PT036H.grib2 2026-04-22 04:12 641K
20260422T00Z_MSC_GDPS_WindSpeed_IsbL-0005_LatLon0.15_PT036H.grib2 2026-04-22 04:12 693K
20260422T00Z_MSC_GDPS_WindSpeed_IsbL-0010_LatLon0.15_PT036H.grib2 2026-04-22 04:12 635K
20260422T00Z_MSC_GDPS_WindSpeed_IsbL-0020_LatLon0.15_PT036H.grib2 2026-04-22 04:12 867K
20260422T00Z_MSC_GDPS_WindSpeed_IsbL-0030_LatLon0.15_PT036H.grib2 2026-04-22 04:12 944K
20260422T00Z_MSC_GDPS_WindSpeed_IsbL-0050_LatLon0.15_PT036H.grib2 2026-04-22 04:12 1.0M
20260422T00Z_MSC_GDPS_WindSpeed_IsbL-0100_LatLon0.15_PT036H.grib2 2026-04-22 04:12 1.1M
20260422T00Z_MSC_GDPS_WindSpeed_IsbL-0150_LatLon0.15_PT036H.grib2 2026-04-22 04:12 1.0M
20260422T00Z_MSC_GDPS_WindSpeed_IsbL-0175_LatLon0.15_PT036H.grib2 2026-04-22 04:12 1.0M
20260422T00Z_MSC_GDPS_WindSpeed_IsbL-0200_LatLon0.15_PT036H.grib2 2026-04-22 04:12 1.1M
20260422T00Z_MSC_GDPS_WindSpeed_IsbL-0225_LatLon0.15_PT036H.grib2 2026-04-22 04:12 1.1M
20260422T00Z_MSC_GDPS_WindSpeed_IsbL-0250_LatLon0.15_PT036H.grib2 2026-04-22 04:12 1.1M
20260422T00Z_MSC_GDPS_WindSpeed_IsbL-0275_LatLon0.15_PT036H.grib2 2026-04-22 04:12 1.1M
20260422T00Z_MSC_GDPS_WindSpeed_IsbL-0300_LatLon0.15_PT036H.grib2 2026-04-22 04:12 1.1M
20260422T00Z_MSC_GDPS_WindSpeed_IsbL-0350_LatLon0.15_PT036H.grib2 2026-04-22 04:12 1.1M
20260422T00Z_MSC_GDPS_WindSpeed_IsbL-0400_LatLon0.15_PT036H.grib2 2026-04-22 04:12 1.1M
20260422T00Z_MSC_GDPS_WindSpeed_IsbL-0450_LatLon0.15_PT036H.grib2 2026-04-22 04:12 1.1M
20260422T00Z_MSC_GDPS_WindSpeed_IsbL-0500_LatLon0.15_PT036H.grib2 2026-04-22 04:12 1.1M
20260422T00Z_MSC_GDPS_WindSpeed_IsbL-0550_LatLon0.15_PT036H.grib2 2026-04-22 04:12 1.1M
20260422T00Z_MSC_GDPS_WindSpeed_IsbL-0600_LatLon0.15_PT036H.grib2 2026-04-22 04:12 1.1M
20260422T00Z_MSC_GDPS_WindSpeed_IsbL-0650_LatLon0.15_PT036H.grib2 2026-04-22 04:12 1.2M
20260422T00Z_MSC_GDPS_WindSpeed_IsbL-0700_LatLon0.15_PT036H.grib2 2026-04-22 04:12 1.5M
20260422T00Z_MSC_GDPS_WindSpeed_IsbL-0750_LatLon0.15_PT036H.grib2 2026-04-22 04:12 1.6M
20260422T00Z_MSC_GDPS_WindSpeed_IsbL-0800_LatLon0.15_PT036H.grib2 2026-04-22 04:12 1.6M
20260422T00Z_MSC_GDPS_WindSpeed_IsbL-0850_LatLon0.15_PT036H.grib2 2026-04-22 04:12 1.7M
20260422T00Z_MSC_GDPS_WindSpeed_IsbL-0875_LatLon0.15_PT036H.grib2 2026-04-22 04:12 1.8M
20260422T00Z_MSC_GDPS_WindSpeed_IsbL-0900_LatLon0.15_PT036H.grib2 2026-04-22 04:12 1.8M
20260422T00Z_MSC_GDPS_WindSpeed_IsbL-0925_LatLon0.15_PT036H.grib2 2026-04-22 04:12 1.9M
20260422T00Z_MSC_GDPS_WindSpeed_IsbL-0950_LatLon0.15_PT036H.grib2 2026-04-22 04:12 1.9M
20260422T00Z_MSC_GDPS_WindSpeed_IsbL-0970_LatLon0.15_PT036H.grib2 2026-04-22 04:12 1.9M
20260422T00Z_MSC_GDPS_WindSpeed_IsbL-0985_LatLon0.15_PT036H.grib2 2026-04-22 04:12 1.8M
20260422T00Z_MSC_GDPS_WindSpeed_IsbL-1000_LatLon0.15_PT036H.grib2 2026-04-22 04:12 1.8M
20260422T00Z_MSC_GDPS_WindSpeed_IsbL-1015_LatLon0.15_PT036H.grib2 2026-04-22 04:12 1.8M
20260422T00Z_MSC_GDPS_WindU_AGL-10m_LatLon0.15_PT036H.grib2 2026-04-22 04:12 1.6M
20260422T00Z_MSC_GDPS_WindU_AGL-120m_LatLon0.15_PT036H.grib2 2026-04-22 04:12 967K
20260422T00Z_MSC_GDPS_WindU_AGL-40m_LatLon0.15_PT036H.grib2 2026-04-22 04:12 965K
20260422T00Z_MSC_GDPS_WindU_AGL-80m_LatLon0.15_PT036H.grib2 2026-04-22 04:12 968K
20260422T00Z_MSC_GDPS_WindU_IsbL-0001_LatLon0.15_PT036H.grib2 2026-04-22 04:12 642K
20260422T00Z_MSC_GDPS_WindU_IsbL-0005_LatLon0.15_PT036H.grib2 2026-04-22 04:12 690K
20260422T00Z_MSC_GDPS_WindU_IsbL-0010_LatLon0.15_PT036H.grib2 2026-04-22 04:12 706K
20260422T00Z_MSC_GDPS_WindU_IsbL-0020_LatLon0.15_PT036H.grib2 2026-04-22 04:12 663K
20260422T00Z_MSC_GDPS_WindU_IsbL-0030_LatLon0.15_PT036H.grib2 2026-04-22 04:12 740K
20260422T00Z_MSC_GDPS_WindU_IsbL-0050_LatLon0.15_PT036H.grib2 2026-04-22 04:12 705K
20260422T00Z_MSC_GDPS_WindU_IsbL-0100_LatLon0.15_PT036H.grib2 2026-04-22 04:12 924K
20260422T00Z_MSC_GDPS_WindU_IsbL-0150_LatLon0.15_PT036H.grib2 2026-04-22 04:12 1.0M
20260422T00Z_MSC_GDPS_WindU_IsbL-0175_LatLon0.15_PT036H.grib2 2026-04-22 04:12 1.0M
20260422T00Z_MSC_GDPS_WindU_IsbL-0200_LatLon0.15_PT036H.grib2 2026-04-22 04:12 853K
20260422T00Z_MSC_GDPS_WindU_IsbL-0225_LatLon0.15_PT036H.grib2 2026-04-22 04:12 867K
20260422T00Z_MSC_GDPS_WindU_IsbL-0250_LatLon0.15_PT036H.grib2 2026-04-22 04:12 866K
20260422T00Z_MSC_GDPS_WindU_IsbL-0275_LatLon0.15_PT036H.grib2 2026-04-22 04:12 950K
20260422T00Z_MSC_GDPS_WindU_IsbL-0300_LatLon0.15_PT036H.grib2 2026-04-22 04:12 941K
20260422T00Z_MSC_GDPS_WindU_IsbL-0350_LatLon0.15_PT036H.grib2 2026-04-22 04:12 896K
20260422T00Z_MSC_GDPS_WindU_IsbL-0400_LatLon0.15_PT036H.grib2 2026-04-22 04:12 899K
20260422T00Z_MSC_GDPS_WindU_IsbL-0450_LatLon0.15_PT036H.grib2 2026-04-22 04:12 902K
20260422T00Z_MSC_GDPS_WindU_IsbL-0500_LatLon0.15_PT036H.grib2 2026-04-22 04:12 1.1M
20260422T00Z_MSC_GDPS_WindU_IsbL-0550_LatLon0.15_PT036H.grib2 2026-04-22 04:12 1.1M
20260422T00Z_MSC_GDPS_WindU_IsbL-0600_LatLon0.15_PT036H.grib2 2026-04-22 04:12 1.2M
20260422T00Z_MSC_GDPS_WindU_IsbL-0650_LatLon0.15_PT036H.grib2 2026-04-22 04:12 1.2M
20260422T00Z_MSC_GDPS_WindU_IsbL-0700_LatLon0.15_PT036H.grib2 2026-04-22 04:12 1.2M
20260422T00Z_MSC_GDPS_WindU_IsbL-0750_LatLon0.15_PT036H.grib2 2026-04-22 04:12 1.3M
20260422T00Z_MSC_GDPS_WindU_IsbL-0800_LatLon0.15_PT036H.grib2 2026-04-22 04:12 1.4M
20260422T00Z_MSC_GDPS_WindU_IsbL-0850_LatLon0.15_PT036H.grib2 2026-04-22 04:12 1.4M
20260422T00Z_MSC_GDPS_WindU_IsbL-0875_LatLon0.15_PT036H.grib2 2026-04-22 04:12 1.4M
20260422T00Z_MSC_GDPS_WindU_IsbL-0900_LatLon0.15_PT036H.grib2 2026-04-22 04:12 1.4M
20260422T00Z_MSC_GDPS_WindU_IsbL-0925_LatLon0.15_PT036H.grib2 2026-04-22 04:12 1.4M
20260422T00Z_MSC_GDPS_WindU_IsbL-0950_LatLon0.15_PT036H.grib2 2026-04-22 04:12 1.4M
20260422T00Z_MSC_GDPS_WindU_IsbL-0970_LatLon0.15_PT036H.grib2 2026-04-22 04:12 1.4M
20260422T00Z_MSC_GDPS_WindU_IsbL-0985_LatLon0.15_PT036H.grib2 2026-04-22 04:12 1.4M
20260422T00Z_MSC_GDPS_WindU_IsbL-1000_LatLon0.15_PT036H.grib2 2026-04-22 04:12 1.7M
20260422T00Z_MSC_GDPS_WindU_IsbL-1015_LatLon0.15_PT036H.grib2 2026-04-22 04:12 1.6M
20260422T00Z_MSC_GDPS_WindV_AGL-10m_LatLon0.15_PT036H.grib2 2026-04-22 04:12 1.3M
20260422T00Z_MSC_GDPS_WindV_AGL-120m_LatLon0.15_PT036H.grib2 2026-04-22 04:12 969K
20260422T00Z_MSC_GDPS_WindV_AGL-40m_LatLon0.15_PT036H.grib2 2026-04-22 04:12 965K
20260422T00Z_MSC_GDPS_WindV_AGL-80m_LatLon0.15_PT036H.grib2 2026-04-22 04:12 969K
20260422T00Z_MSC_GDPS_WindV_IsbL-0001_LatLon0.15_PT036H.grib2 2026-04-22 04:12 702K
20260422T00Z_MSC_GDPS_WindV_IsbL-0005_LatLon0.15_PT036H.grib2 2026-04-22 04:12 853K
20260422T00Z_MSC_GDPS_WindV_IsbL-0010_LatLon0.15_PT036H.grib2 2026-04-22 04:12 888K
20260422T00Z_MSC_GDPS_WindV_IsbL-0020_LatLon0.15_PT036H.grib2 2026-04-22 04:12 856K
20260422T00Z_MSC_GDPS_WindV_IsbL-0030_LatLon0.15_PT036H.grib2 2026-04-22 04:12 854K
20260422T00Z_MSC_GDPS_WindV_IsbL-0050_LatLon0.15_PT036H.grib2 2026-04-22 04:12 910K
20260422T00Z_MSC_GDPS_WindV_IsbL-0100_LatLon0.15_PT036H.grib2 2026-04-22 04:12 1.1M
20260422T00Z_MSC_GDPS_WindV_IsbL-0150_LatLon0.15_PT036H.grib2 2026-04-22 04:12 940K
20260422T00Z_MSC_GDPS_WindV_IsbL-0175_LatLon0.15_PT036H.grib2 2026-04-22 04:12 1.0M
20260422T00Z_MSC_GDPS_WindV_IsbL-0200_LatLon0.15_PT036H.grib2 2026-04-22 04:12 1.1M
20260422T00Z_MSC_GDPS_WindV_IsbL-0225_LatLon0.15_PT036H.grib2 2026-04-22 04:12 864K
20260422T00Z_MSC_GDPS_WindV_IsbL-0250_LatLon0.15_PT036H.grib2 2026-04-22 04:12 864K
20260422T00Z_MSC_GDPS_WindV_IsbL-0275_LatLon0.15_PT036H.grib2 2026-04-22 04:12 888K
20260422T00Z_MSC_GDPS_WindV_IsbL-0300_LatLon0.15_PT036H.grib2 2026-04-22 04:12 876K
20260422T00Z_MSC_GDPS_WindV_IsbL-0350_LatLon0.15_PT036H.grib2 2026-04-22 04:12 889K
20260422T00Z_MSC_GDPS_WindV_IsbL-0400_LatLon0.15_PT036H.grib2 2026-04-22 04:12 890K
20260422T00Z_MSC_GDPS_WindV_IsbL-0450_LatLon0.15_PT036H.grib2 2026-04-22 04:12 891K
20260422T00Z_MSC_GDPS_WindV_IsbL-0500_LatLon0.15_PT036H.grib2 2026-04-22 04:12 1.1M
20260422T00Z_MSC_GDPS_WindV_IsbL-0550_LatLon0.15_PT036H.grib2 2026-04-22 04:12 1.1M
20260422T00Z_MSC_GDPS_WindV_IsbL-0600_LatLon0.15_PT036H.grib2 2026-04-22 04:12 1.1M
20260422T00Z_MSC_GDPS_WindV_IsbL-0650_LatLon0.15_PT036H.grib2 2026-04-22 04:12 1.2M
20260422T00Z_MSC_GDPS_WindV_IsbL-0700_LatLon0.15_PT036H.grib2 2026-04-22 04:12 1.2M
20260422T00Z_MSC_GDPS_WindV_IsbL-0750_LatLon0.15_PT036H.grib2 2026-04-22 04:12 1.3M
20260422T00Z_MSC_GDPS_WindV_IsbL-0800_LatLon0.15_PT036H.grib2 2026-04-22 04:12 1.3M
20260422T00Z_MSC_GDPS_WindV_IsbL-0850_LatLon0.15_PT036H.grib2 2026-04-22 04:12 1.4M
20260422T00Z_MSC_GDPS_WindV_IsbL-0875_LatLon0.15_PT036H.grib2 2026-04-22 04:12 1.4M
20260422T00Z_MSC_GDPS_WindV_IsbL-0900_LatLon0.15_PT036H.grib2 2026-04-22 04:12 1.4M
20260422T00Z_MSC_GDPS_WindV_IsbL-0925_LatLon0.15_PT036H.grib2 2026-04-22 04:12 1.4M
20260422T00Z_MSC_GDPS_WindV_IsbL-0950_LatLon0.15_PT036H.grib2 2026-04-22 04:12 1.4M
20260422T00Z_MSC_GDPS_WindV_IsbL-0970_LatLon0.15_PT036H.grib2 2026-04-22 04:12 1.4M
20260422T00Z_MSC_GDPS_WindV_IsbL-0985_LatLon0.15_PT036H.grib2 2026-04-22 04:12 1.4M
20260422T00Z_MSC_GDPS_WindV_IsbL-1000_LatLon0.15_PT036H.grib2 2026-04-22 04:12 1.4M
20260422T00Z_MSC_GDPS_WindV_IsbL-1015_LatLon0.15_PT036H.grib2 2026-04-22 04:12 1.3M